Location: Briarstone Lake
(43.1454°N, 93.2359°W)
Time: 08:32:48
(UTC+00:00)

BlueWalker 3 - Pass Details

Date: 28 January 2026
Orbit: 450 x 461 km, 53.2° (Epoch: 11 February)

Event Time Altitude Azimuth Distance (km) Brightness Sun altitude
Rises 00:52:45 0° 284° (WNW) 2,456 6.7 -17.2°
Reaches altitude 10° 00:55:23 10° 304° (NW) 1,584 5.1 -17.7°
Maximum altitude 00:57:55 18° 349° (N) 1,176 3.8 -18.1°
Enters shadow 00:58:47 17° 8° (N) 1,230 3.7 -18.3°
